Regional Weather Roundup
Issued by NWS

Home | Current Version | Previous Version | Text Only | Print | Product List | Glossary On
Versions: 1 2 3 4 5 6 7 8 9 10 11 12 13 14 15 16 17 18 19 20 21 22 23 24 25 26 27 28 29 30 31 32 33 34 35 36 37 38 39 40 41 42 43 44 45 46 47 48 49 50
414
ASUS42 KTBW 010217
RWRFL
FLORIDA REGIONAL WEATHER ROUNDUP
NATIONAL WEATHER SERVICE TAMPA BAY RUSKIN FL
1000 PM EDT TUE MAY 31 2016

NOTE: "FAIR" INDICATES FEW OR NO CLOUDS BELOW 12,000 FEET WITH NO
SIGNIFICANT WEATHER AND/OR OBSTRUCTIONS TO VISIBILITY.

FLZ001>010-012>015-112-114-115-010300-
PANHANDLE FLORIDA

CITY           SKY/WX    TMP DP  RH WIND       PRES   REMARKS
PENSACOLA      PTCLDY    76  68  76 CALM      29.92R
MILTON NAS     CLOUDY    70  70 100 CALM      29.93
CRESTVIEW      CLOUDY    71  69  93 CALM      29.94R FOG
DUKE FIELD     MOCLDY    71  70  95 NW2       29.92R
VALPARAISO     MOCLDY    74  68  80 N3        29.92R
PANAMA CITY    FAIR      76  73  91 CALM      29.90S
TYNDALL AFB    MOCLDY    79  74  84 SW3       29.92R
APALACHICOLA   MOCLDY    76  74  93 CALM      29.93R

STATION/POSITION SKY/WX   TEMP    WIND        PRES    WAVE   SWELL
                          AIR SEA DIR/SP/G            HT/PER HT/PER
                          (F)     (DEG/KT/KT) (MB)    (FT/S) (FT/S)
30.1N   87.6W              82 83              1012.4R   1/ 3
29.2N   88.2W              80 82  200/  4/  6 1013.0R
28.8N   86.0W              80 83  210/  4/  6 1013.3    1
PANAMA CITY BEAC              82              1013.0R
TOWER C                    79     250/  7/  8 1014.3R
28.5N   84.5W              81 83  260/  4/  6 1013.4R   1

$$
FLZ011-016>038-118-127-128-134-139-239-010300-
NORTH FLORIDA

CITY           SKY/WX    TMP DP  RH WIND       PRES   REMARKS
MARIANNA       CLOUDY    77  67  71 S3        29.91R
TALLAHASSEE    CLOUDY    76  71  85 W5        29.93R
PERRY          CLOUDY    78  73  83 CALM      29.94R
LIVE OAK       FAIR      75  66  73 CALM      29.95R
CROSS CITY       N/A     77  70  79 CALM      29.94R
LAKE CITY      FAIR      77  64  65 SW6       29.94S
GAINESVILLE    CLOUDY    74  65  73 SE7       29.95R
WILLISTON      FAIR      77  72  83 CALM      29.96R
PALATKA        FAIR      72  72 100 W5        29.96R
MAYPORT NAS    MOCLDY    76  68  76 SW7       29.94R
JACKSONVILLE   MOCLDY    77  68  73 CALM      29.93R
JAX NAS        CLOUDY    79  69  71 CALM      29.95R
JAX CECIL        N/A     72  66  83 CALM      29.94R
FERNANDINA BEA FAIR      79  72  78 CALM      29.93R
ST AUGUSTINE   CLOUDY    78  69  73 SW5       29.95R
PALM COAST     LGT RAIN  76  71  84 SW3       29.95S

STATION/POSITION SKY/WX   TEMP    WIND        PRES    WAVE   SWELL
                          AIR SEA DIR/SP/G            HT/PER HT/PER
                          (F)     (DEG/KT/KT) (MB)    (FT/S) (FT/S)
SHELL POINT      NOT AVBL
KEATON BEACH               80     250/  9/ 10 1013.3R
CEDAR KEY                  80     300/  5/  6 1013.8R
FERNANDINA                    81              1012.7F
30.7N   81.3W                 80                N/A     2/ 9
MAYPORT                       80              1013.7R
31.4N   80.9W              77 77  180/  8/  8 1014.0R   2/ 8   2/ 8
ST AUGUSTINE               78 81  190/  7/  8 1014.7R

$$
FLZ040-043>046-052-053-057-058-063-144-010300-
INTERIOR CENTRAL FLORIDA

CITY           SKY/WX    TMP DP  RH WIND       PRES   REMARKS
OCALA          CLEAR     75  68  78 CALM      29.96S
THE VILLAGES     N/A     79  70  73 SE6       29.88R
LEESBURG       PTCLDY    79  68  69 S9        29.98R
SANFORD        CLOUDY    76  66  71 SW9       29.96R
ORLANDO EXEC   MOCLDY    74  71  91 S5        29.97S
ORLANDO INTL   TSTM      71  69  93 SW3       29.97F
KISSIMMEE      CLOUDY    73  72  94 W3        29.98F
WINTER HAVEN   CLOUDY    76  71  85 CALM      30.00R
LAKELAND       CLOUDY    75  70  83 E10       29.98R
BARTOW         LGT RAIN  72 N/A N/A SW7       29.99R
OKEECHOBEE     PTCLDY    72  70  94 CALM      29.97R

$$
FLZ041-047-054-059-064-141-147-010300-
EAST CENTRAL FLORIDA

CITY           SKY/WX    TMP DP  RH WIND       PRES   REMARKS
DAYTONA BEACH  PTCLDY    79  69  71 S6        29.96R
DELAND           N/A     79  66  65 SW7       29.98R
NEW SMYRNA BEA PTCLDY    81  70  69 SE8       29.96R
JFK SPACE CTR  MOCLDY    78  70  76 SW3       29.96R
CAPE CANAVERAL MOCLDY    78  71  78 S6        29.95R HAZE
MELBOURNE      MOCLDY    77  69  76 W7        29.97R
VERO BEACH     CLOUDY    80  72  76 S5        29.97R
FT PIERCE      CLEAR     75  72  90 CALM      29.97R

STATION/POSITION SKY/WX   TEMP    WIND        PRES    WAVE   SWELL
                          AIR SEA DIR/SP/G            HT/PER HT/PER
                          (F)     (DEG/KT/KT) (MB)    (FT/S) (FT/S)
28.5N   80.2W              81 80  180/  6/  8 1014.7R
28.9N   78.5W              80 80  180/ 10/ 12 1014.2R
TRIDENT PIER                  84              1014.3R
28.4N   80.5W                 82                N/A     2/ 8

$$
FLZ050-056-061-142-242-148-248-149-249-151-251-155-255-
160-260-010300-
WEST CENTRAL FLORIDA

CITY           SKY/WX    TMP DP  RH WIND       PRES   REMARKS
CRYSTAL RIVER  FAIR      75  70  83 CALM      29.96R
INVERNESS      FAIR      73  72  94 CALM      29.97R
BROOKSVILLE    PTCLDY    77  69  76 CALM      29.97R
ZEPHYRHILLS    MOCLDY    72  66  80 NE3       29.98R
CLEARWATER AIR FAIR      79  70  73 CALM      29.94S
ST PETE CLEARW CLEAR     80  69  69 N6        29.94R
TAMPA INTL     PTCLDY    81  68  64 N6        29.95R
TAMPA EXEC     PTCLDY    79  68  69 E5        29.96S
PLANT CITY     CLOUDY    79  70  73 SE7       29.99R
MACDILL AFB    PTCLDY    78  68  72 E6        29.95R
PETER O KNIGHT CLEAR     82  70  65 E8        29.96R
ST PETERSBURG  PTCLDY    82  69  64 NE6       29.94R
SARASOTA       CLEAR     80  69  69 SE8       29.94R
VENICE         NOT AVBL

STATION/POSITION SKY/WX   TEMP    WIND        PRES    WAVE   SWELL
                          AIR SEA DIR/SP/G            HT/PER HT/PER
                          (F)     (DEG/KT/KT) (MB)    (FT/S) (FT/S)
27.3N   84.2W                 84                N/A     1
CLEARWATER BEACH              86              1013.7R
MIDDLE TAMPA BAY NOT AVBL
VENICE                     82 84  350/  8/  9 1013.6R

$$
FLZ066-069-070-075>078-162-262-165-265-010300-
SOUTHWEST FLORIDA AND KEYS

CITY           SKY/WX    TMP DP  RH WIND       PRES   REMARKS
PUNTA GORDA    CLOUDY    76  71  85 E5        29.98R
FT MYERS       PTCLDY    79  71  76 CALM      29.95R
SOUTHWEST INTL MOCLDY    79  71  76 CALM      29.96R
NAPLES         CLEAR     79  69  71 E5        29.95R
MARCO ISLAND   MOCLDY    77  66  69 NE5       29.96R
MARATHON       PTCLDY    82  72  71 E8        29.95R
KEY WEST NAS   PTCLDY    81  71  71 E10       29.94F
KEY WEST INTL  CLEAR     82  74  76 SE10      29.94R

STATION/POSITION SKY/WX   TEMP    WIND        PRES    WAVE   SWELL
                          AIR SEA DIR/SP/G            HT/PER HT/PER
                          (F)     (DEG/KT/KT) (MB)    (FT/S) (FT/S)
NAPLES                        86              1013.7R
26.0N   85.6W              80 83   90/  8/ 10 1013.8R   1
DRY TORTUGAS               82     120/ 10/ 11 1013.7R
SAND KEY                   82     120/ 12/ 14 1014.2R
LONG KEY                   82 88  100/ 11/ 14 1014.0R

$$
FLZ067-068-071>074-168-172>174-010300-
SOUTHEAST FLORIDA

CITY           SKY/WX    TMP DP  RH WIND       PRES   REMARKS
W PALM BEACH   CLOUDY    81  69  67 SE6       29.97R
FT LAUDER-EXEC PTCLDY    80  70  71 SE6       29.96R
FT LAUDERDALE  PTCLDY    82  70  66 SE9       29.96R
POMPANO BEACH  PTCLDY    80  71  74 E7        29.96R
PEMBROKE PINES PTCLDY    79  71  76 SE3       29.97R
OPA LOCKA      PTCLDY    77  72  84 CALM      29.96R
MIAMI          MOCLDY    80  72  76 E6        29.96R
WEST KENDALL   CLEAR     74  72  93 CALM      29.96R
HOMESTEAD      NOT AVBL

STATION/POSITION SKY/WX   TEMP    WIND        PRES    WAVE   SWELL
                          AIR SEA DIR/SP/G            HT/PER HT/PER
                          (F)     (DEG/KT/KT) (MB)    (FT/S) (FT/S)
PORT EVERGLADES            82      90/  5/  8 1013.7R
LAKE WORTH                    84              1013.9R
FOWEY ROCKS                81 83  100/ 11/ 13 1014.3R
SETTLEMENT POINT           80     140/  7/  9 1015.5R

$$





USA.gov is the U.S. government's official web portal to all federal, state and local government web resources and services.